sat.trackr.live / text

‹ back to catalog

SITRO-AIS 5 (KATYS)

NORAD 57176 · 2023-091L

PAYLOAD ACTIVE UNKNOWN

§ Identity

Operator
Country
CIS
Launch date
2023-06-27
Launch site
VOSTO
Launch vehicle
Mass (kg)
RCS (m²)

Purposes: tech_demo

External: N2YO · Heavens-Above · Gunter

§ Orbital elements

Epoch: 2026-09-19T22:35:32.126784Z

Period
94.04 min
Inclination
97.4963°
Eccentricity
0.0012069
Mean motion
15.31332337 rev/d
Perigee alt
463.6 km
Apogee alt
480.1 km
Semi-major
6,850.0 km
B*
2.8559e-4
RAAN
327.8221°
Arg perigee
123.6090°
Mean anomaly
236.6305°
Rev number
17,883

§ Raw data

SITRO-AIS 5 (KATYS)1 57176U 23091L   26262.94134406  .00008583  00000+0  28559-3 0  99952 57176  97.4963 327.8221 0012069 123.6090 236.6305 15.31332337178833

JSON: /api/v1/satellites/57176 · /tle

For live sub-satellite position, see the globe view (requires WebGL).

§ Visibility from observer

Set your observer location to see the next 7 days of passes ≥ 10°. The values pass through the URL so the page stays shareable.

No JS? Fill the form by hand. The geolocation button needs JavaScript.

§ Radio — SatNOGS DB

ModeDescriptionDownlinkUplink
GMSK USP Mode U - GMSK USP 2K4 TLM 401.140 MHz

1 transmitter · refreshed weekly from db.satnogs.org